| time (UTC) | temp F | wind direction | speed knots | gust knots | rain 1hr in | rain 24hr in | rain mn in | humidity % | barometer mb |
| 20260906141155 | 83 | 73 | 0.9 | 2.6 | 0.00 | 0.00 | 0.25 | 67 | 1014.0 |
| 20260906140656 | 83 | 87 | 2.6 | 3.5 | 0.00 | 0.00 | 0.25 | 67 | 1014.0 |
| 20260906140155 | 84 | 157 | 1.7 | 2.6 | 0.00 | 0.00 | 0.25 | 66 | 1014.0 |
| 20260906135655 | 84 | 138 | 1.7 | 2.6 | 0.00 | 0.00 | 0.25 | 64 | 1014.0 |
| 20260906135155 | 83 | 256 | 0.0 | 1.7 | 0.00 | 0.00 | 0.25 | 65 | 1014.0 |
| 20260906134655 | 83 | 95 | 1.7 | 3.5 | 0.00 | 0.00 | 0.25 | 66 | 1014.0 |
| 20260906134155 | 82 | 268 | 0.9 | 2.6 | 0.00 | 0.00 | 0.25 | 68 | 1014.0 |
| 20260906133655 | 81 | 338 | 0.0 | 0.9 | 0.00 | 0.00 | 0.25 | 70 | 1014.0 |
| 20260906133155 | 81 | 69 | 2.6 | 5.2 | 0.00 | 0.00 | 0.25 | 70 | 1014.0 |
| 20260906132655 | 80 | 283 | 0.0 | 0.9 | 0.00 | 0.00 | 0.25 | 71 | 1014.0 |
| 20260906132155 | 79 | 71 | 1.7 | 2.6 | 0.00 | 0.00 | 0.25 | 74 | 1014.0 |
| 20260906131656 | 78 | 141 | 0.9 | 1.7 | 0.00 | 0.00 | 0.25 | 77 | 1014.0 |
| 20260906131155 | 78 | 104 | 1.7 | 2.6 | 0.00 | 0.00 | 0.25 | 78 | 1014.0 |
| 20260906130655 | 77 | 96 | 1.7 | 2.6 | 0.00 | 0.00 | 0.25 | 79 | 1014.0 |
| 20260906130157 | 77 | 93 | 0.9 | 2.6 | 0.00 | 0.00 | 0.25 | 81 | 1014.0 |
| 20260906125655 | 77 | 118 | 1.7 | 2.6 | 0.00 | 0.00 | 0.25 | 81 | 1014.0 |
| 20260906125155 | 76 | 75 | 0.9 | 1.7 | 0.00 | 0.00 | 0.25 | 82 | 1014.0 |
| 20260906124655 | 75 | 108 | 0.9 | 1.7 | 0.00 | 0.00 | 0.25 | 83 | 1014.0 |
| 20260906124155 | 75 | 220 | 0.9 | 1.7 | 0.00 | 0.00 | 0.25 | 84 | 1014.0 |
| 20260906123657 | 74 | 209 | 0.9 | 1.7 | 0.00 | 0.00 | 0.25 | 83 | 1014.0 |
| 20260906123156 | 73 | 236 | 0.0 | 0.9 | 0.00 | 0.00 | 0.25 | 85 | 1014.0 |
| 20260906122700 | 73 | 84 | 0.9 | 1.7 | 0.00 | 0.00 | 0.25 | 87 | 1014.0 |
| 20260906122155 | 72 | 58 | 0.9 | 1.7 | 0.00 | 0.00 | 0.25 | 89 | 1014.0 |
| 20260906121655 | 72 | 46 | 0.0 | 0.0 | 0.00 | 0.00 | 0.25 | 89 | 1014.0 |
| 20260906121155 | 71 | 74 | 0.9 | 1.7 | 0.00 | 0.00 | 0.25 | 90 | 1014.0 |
| 20260906120657 | 71 | 322 | 0.9 | 1.7 | 0.00 | 0.00 | 0.25 | 90 | 1014.0 |
| 20260906120155 | 71 | 44 | 0.0 | 1.7 | 0.00 | 0.00 | 0.25 | 90 | 1014.0 |
| 20260906115655 | 71 | 359 | 0.9 | 0.9 | 0.00 | 0.00 | 0.25 | 90 | 1014.0 |
| 20260906115155 | 72 | 105 | 0.9 | 1.7 | 0.00 | 0.00 | 0.25 | 89 | 1014.0 |
| 20260906114656 | 72 | 65 | 0.9 | 1.7 | 0.00 | 0.00 | 0.25 | 88 | 1014.0 |
| 20260906114155 | 72 | 78 | 0.9 | 1.7 | 0.00 | 0.00 | 0.25 | 87 | 1014.0 |
| 20260906113655 | 72 | 353 | 0.0 | 0.9 | 0.00 | 0.00 | 0.25 | 87 | 1014.0 |
| 20260906113156 | 72 | 32 | 0.9 | 1.7 | 0.00 | 0.00 | 0.25 | 87 | 1014.0 |
| 20260906112655 | 72 | 24 | 0.0 | 0.9 | 0.00 | 0.00 | 0.25 | 87 | 1014.0 |
| 20260906112155 | 72 | 58 | 0.9 | 1.7 | 0.00 | 0.00 | 0.25 | 86 | 1014.0 |
| 20260906111655 | 73 | 11 | 0.0 | 0.0 | 0.00 | 0.00 | 0.25 | 86 | 1014.0 |
| 20260906111155 | 73 | 3 | 0.9 | 0.9 | 0.00 | 0.00 | 0.25 | 86 | 1014.0 |
| 20260906110656 | 73 | 43 | 0.9 | 1.7 | 0.00 | 0.00 | 0.25 | 85 | 1014.0 |
| 20260906110155 | 73 | 64 | 0.9 | 2.6 | 0.00 | 0.00 | 0.25 | 84 | 1014.0 |
| 20260906105655 | 73 | 309 | 0.0 | 0.9 | 0.00 | 0.00 | 0.25 | 83 | 1014.0 |
| 20260906105156 | 73 | 273 | 0.0 | 0.9 | 0.00 | 0.00 | 0.25 | 84 | 1014.0 |
| 20260906104655 | 73 | 284 | 1.7 | 1.7 | 0.00 | 0.00 | 0.25 | 84 | 1014.0 |
| 20260906104156 | 73 | 43 | 0.0 | 0.9 | 0.00 | 0.00 | 0.25 | 84 | 1013.0 |
| 20260906103230 | 73 | 88 | 0.0 | 0.9 | 0.00 | 0.00 | 0.25 | 85 | 1013.0 |
| 20260906102656 | 73 | 44 | 0.0 | 0.9 | 0.00 | 0.00 | 0.25 | 85 | 1014.0 |
| 20260906102155 | 73 | 70 | 0.9 | 1.7 | 0.00 | 0.00 | 0.25 | 85 | 1013.0 |
| 20260906101656 | 73 | 344 | 0.0 | 0.0 | 0.00 | 0.00 | 0.25 | 85 | 1014.0 |
| 20260906101156 | 73 | 33 | 0.0 | 1.7 | 0.00 | 0.00 | 0.25 | 86 | 1014.0 |
| 20260906100655 | 73 | 313 | 0.9 | 1.7 | 0.00 | 0.00 | 0.25 | 86 | 1013.0 |
| 20260906100155 | 73 | 86 | 0.9 | 1.7 | 0.00 | 0.00 | 0.25 | 86 | 1013.0 |
| 20260906095655 | 73 | 350 | 0.0 | 0.9 | 0.00 | 0.00 | 0.25 | 85 | 1013.0 |
| 20260906095156 | 73 | 360 | 0.0 | 0.0 | 0.00 | 0.00 | 0.25 | 85 | 1013.0 |
| 20260906094655 | 74 | 360 | 0.0 | 0.0 | 0.00 | 0.00 | 0.25 | 84 | 1013.0 |
| 20260906094157 | 74 | 126 | 1.7 | 1.7 | 0.00 | 0.00 | 0.25 | 82 | 1013.0 |
| 20260906093656 | 73 | 332 | 0.9 | 1.7 | 0.00 | 0.00 | 0.25 | 82 | 1013.0 |
| 20260906093155 | 73 | 279 | 0.9 | 1.7 | 0.00 | 0.00 | 0.25 | 84 | 1013.0 |
| 20260906092655 | 74 | 245 | 0.0 | 0.9 | 0.00 | 0.00 | 0.25 | 84 | 1013.0 |
| 20260906092155 | 74 | 96 | 1.7 | 1.7 | 0.00 | 0.00 | 0.25 | 82 | 1013.0 |
| 20260906091656 | 75 | 47 | 0.0 | 0.9 | 0.00 | 0.00 | 0.25 | 79 | 1013.0 |
| 20260906091155 | 76 | 124 | 0.9 | 0.9 | 0.00 | 0.00 | 0.25 | 78 | 1013.0 |
| 20260906090655 | 77 | 44 | 0.9 | 1.7 | 0.00 | 0.00 | 0.25 | 73 | 1013.0 |
| 20260906090155 | 77 | 216 | 0.9 | 1.7 | 0.00 | 0.00 | 0.25 | 71 | 1013.0 |
| 20260906085657 | 77 | 243 | 1.7 | 2.6 | 0.00 | 0.00 | 0.25 | 69 | 1013.0 |
| 20260906085156 | 77 | 299 | 0.9 | 2.6 | 0.00 | 0.00 | 0.25 | 69 | 1013.0 |
| 20260906084656 | 77 | 11 | 1.7 | 2.6 | 0.00 | 0.00 | 0.25 | 70 | 1013.0 |
| 20260906084156 | 77 | 316 | 1.7 | 2.6 | 0.00 | 0.00 | 0.25 | 70 | 1013.0 |
| 20260906083655 | 77 | 134 | 1.7 | 3.5 | 0.00 | 0.00 | 0.25 | 69 | 1012.0 |
| 20260906083155 | 76 | 33 | 2.6 | 5.2 | 0.00 | 0.00 | 0.25 | 70 | 1012.0 |
| 20260906082655 | 75 | 72 | 2.6 | 4.3 | 0.00 | 0.00 | 0.25 | 71 | 1012.0 |
| 20260906082155 | 74 | 51 | 2.6 | 5.2 | 0.00 | 0.00 | 0.25 | 77 | 1012.0 |
| 20260906081656 | 74 | 43 | 1.7 | 3.5 | 0.00 | 0.00 | 0.25 | 79 | 1013.0 |
| 20260906081155 | 73 | 20 | 1.7 | 3.5 | 0.00 | 0.00 | 0.25 | 81 | 1013.0 |
| 20260906080655 | 73 | 42 | 1.7 | 3.5 | 0.00 | 0.00 | 0.25 | 82 | 1013.0 |
| 20260906080155 | 73 | 67 | 3.5 | 7.8 | 0.00 | 0.00 | 0.25 | 84 | 1014.0 |
| 20260906075655 | 72 | 33 | 2.6 | 4.3 | 0.00 | 0.00 | 0.25 | 86 | 1014.0 |
| 20260906075155 | 72 | 60 | 7.0 | 10.4 | 0.00 | 0.00 | 0.25 | 87 | 1014.0 |
| 20260906074655 | 72 | 58 | 3.5 | 6.1 | 0.00 | 0.00 | 0.25 | 88 | 1014.0 |
| 20260906074155 | 73 | 50 | 2.6 | 5.2 | 0.00 | 0.00 | 0.25 | 88 | 1014.0 |
| 20260906073655 | 73 | 64 | 4.3 | 7.8 | 0.00 | 0.00 | 0.25 | 89 | 1015.0 |
| 20260906073155 | 74 | 64 | 4.3 | 7.0 | 0.00 | 0.00 | 0.25 | 89 | 1015.0 |
| 20260906072655 | 75 | 34 | 3.5 | 6.1 | 0.00 | 0.00 | 0.25 | 88 | 1015.0 |
| 20260906072156 | 76 | 74 | 3.5 | 5.2 | 0.00 | 0.00 | 0.25 | 86 | 1015.0 |
| 20260906071656 | 76 | 40 | 3.5 | 7.0 | 0.00 | 0.00 | 0.25 | 86 | 1015.0 |
| 20260906071155 | 76 | 71 | 4.3 | 8.7 | 0.00 | 0.00 | 0.25 | 85 | 1015.0 |
| 20260906070655 | 76 | 77 | 3.5 | 5.2 | 0.00 | 0.00 | 0.25 | 85 | 1015.0 |
| 20260906070155 | 75 | 136 | 2.6 | 3.5 | 0.00 | 0.00 | 0.25 | 87 | 1015.0 |
| 20260906065655 | 75 | 13 | 2.6 | 3.5 | 0.00 | 0.00 | 0.24 | 90 | 1014.0 |
| 20260906065156 | 75 | 80 | 1.7 | 2.6 | 0.00 | 0.00 | 0.24 | 90 | 1014.0 |
| 20260906064655 | 76 | 46 | 0.9 | 1.7 | 0.00 | 0.00 | 0.24 | 89 | 1014.0 |
| 20260906064155 | 76 | 14 | 0.9 | 1.7 | 0.00 | 0.00 | 0.24 | 86 | 1014.0 |
| 20260906063655 | 76 | 239 | 1.7 | 3.5 | 0.00 | 0.00 | 0.24 | 86 | 1014.0 |
| 20260906063156 | 76 | 260 | 0.0 | 1.7 | 0.00 | 0.00 | 0.24 | 87 | 1014.0 |
| 20260906062655 | 76 | 34 | 1.7 | 2.6 | 0.00 | 0.00 | 0.24 | 86 | 1014.0 |
| 20260906062155 | 76 | 88 | 3.5 | 4.3 | 0.00 | 0.00 | 0.24 | 85 | 1014.0 |
| 20260906061655 | 76 | 44 | 0.9 | 1.7 | 0.00 | 0.00 | 0.24 | 86 | 1014.0 |
| 20260906061155 | 76 | 205 | 0.9 | 1.7 | 0.00 | 0.00 | 0.24 | 83 | 1014.0 |
| 20260906060655 | 76 | 359 | 1.7 | 5.2 | 0.00 | 0.00 | 0.24 | 82 | 1014.0 |
| 20260906060155 | 76 | 286 | 1.7 | 2.6 | 0.00 | 0.00 | 0.24 | 85 | 1013.0 |
| 20260906055655 | 76 | 306 | 0.9 | 2.6 | 0.00 | 0.00 | 0.24 | 85 | 1013.0 |
| 20260906055155 | 76 | 346 | 1.7 | 2.6 | 0.00 | 0.00 | 0.24 | 83 | 1013.0 |
| 20260906054655 | 77 | 52 | 1.7 | 3.5 | 0.00 | 0.00 | 0.13 | 81 | 1013.0 |
| 20260906054156 | 77 | 57 | 2.6 | 5.2 | 0.04 | 0.00 | 0.13 | 81 | 1013.0 |
| 20260906053655 | 77 | 82 | 5.2 | 8.7 | 0.02 | 0.00 | 0.13 | 80 | 1013.0 |
| 20260906053155 | 78 | 89 | 7.8 | 11.3 | 0.26 | 0.00 | 0.01 | 80 | 1013.0 |
| 20260906052655 | 79 | 77 | 11.3 | 17.4 | 0.00 | 0.00 | 0.00 | 76 | 1014.0 |
| 20260906052155 | 80 | 77 | 7.0 | 9.6 | 0.00 | 0.00 | 0.00 | 75 | 1013.0 |
| 20260906051655 | 81 | 97 | 7.8 | 13.0 | 0.02 | 0.00 | 0.00 | 73 | 1014.0 |
| 20260906051155 | 81 | 90 | 7.0 | 13.0 | 0.00 | 0.00 | 0.00 | 71 | 1013.0 |
| 20260906050657 | 80 | 49 | 3.5 | 7.8 | 0.00 | 0.00 | 0.00 | 76 | 1013.0 |
| 20260906050155 | 80 | 26 | 0.9 | 1.7 | 0.00 | 0.00 | 0.00 | 79 | 1013.0 |
| 20260906045655 | 80 | 69 | 0.0 | 0.9 | 0.00 | 0.00 | 0.00 | 78 | 1013.0 |
| 20260906045155 | 80 | 340 | 0.0 | 0.0 | 0.00 | 0.00 | 0.00 | 78 | 1013.0 |
| 20260906044655 | 80 | 172 | 0.0 | 0.9 | 0.00 | 0.00 | 0.00 | 77 | 1013.0 |
| 20260906044156 | 80 | 44 | 0.0 | 1.7 | 0.00 | 0.00 | 0.00 | 77 | 1013.0 |
| 20260906043655 | 80 | 213 | 0.0 | 0.9 | 0.00 | 0.00 | 0.00 | 77 | 1013.0 |
| 20260906043155 | 80 | 45 | 0.0 | 0.9 | 0.00 | 0.00 | 0.00 | 77 | 1013.0 |
| 20260906042655 | 80 | 64 | 0.0 | 0.9 | 0.00 | 0.00 | 0.00 | 77 | 1013.0 |
| 20260906042156 | 80 | 332 | 0.9 | 0.9 | 0.00 | 0.00 | 0.00 | 77 | 1013.0 |
| 20260906041655 | 80 | 112 | 0.0 | 0.9 | 0.00 | 0.00 | 0.00 | 77 | 1013.0 |
| 20260906041155 | 80 | 88 | 1.7 | 2.6 | 0.00 | 0.00 | 0.00 | 78 | 1013.0 |
| 20260906040656 | 80 | 48 | 0.0 | 0.9 | 0.00 | 0.00 | 0.00 | 78 | 1013.0 |
| 20260906040155 | 80 | 35 | 0.0 | 0.0 | 0.00 | 0.00 | 0.00 | 76 | 1013.0 |
| 20260906035655 | 80 | 24 | 0.0 | 0.9 | 0.00 | 0.00 | 0.00 | 77 | 1014.0 |
| 20260906035155 | 80 | 291 | 0.0 | 0.9 | 0.00 | 0.00 | 0.00 | 77 | 1014.0 |
| 20260906034655 | 80 | 46 | 0.0 | 0.9 | 0.00 | 0.00 | 0.00 | 76 | 1014.0 |
| 20260906034155 | 80 | 37 | 0.0 | 0.0 | 0.00 | 0.00 | 0.00 | 76 | 1013.0 |
| 20260906033655 | 80 | 284 | 0.0 | 0.9 | 0.00 | 0.00 | 0.00 | 76 | 1013.0 |
| 20260906033156 | 81 | 352 | 0.0 | 0.9 | 0.00 | 0.00 | 0.00 | 76 | 1013.0 |
| 20260906032655 | 81 | 37 | 0.0 | 0.9 | 0.00 | 0.00 | 0.00 | 74 | 1013.0 |
| 20260906032155 | 81 | 65 | 0.0 | 0.9 | 0.00 | 0.00 | 0.00 | 74 | 1013.0 |
| 20260906031656 | 81 | 77 | 0.9 | 1.7 | 0.00 | 0.00 | 0.00 | 74 | 1013.0 |
| 20260906031155 | 81 | 303 | 0.0 | 0.9 | 0.00 | 0.00 | 0.00 | 73 | 1013.0 |
| 20260906030655 | 82 | 350 | 0.0 | 0.9 | 0.00 | 0.00 | 0.00 | 74 | 1013.0 |
| 20260906030155 | 82 | 329 | 0.0 | 0.9 | 0.00 | 0.00 | 0.00 | 74 | 1013.0 |
| 20260906025655 | 82 | 246 | 0.0 | 0.0 | 0.00 | 0.00 | 0.00 | 72 | 1013.0 |
| 20260906025155 | 82 | 176 | 0.9 | 1.7 | 0.00 | 0.00 | 0.00 | 73 | 1013.0 |
| 20260906024655 | 83 | 37 | 0.9 | 1.7 | 0.00 | 0.00 | 0.00 | 72 | 1013.0 |
| 20260906024155 | 83 | 360 | 0.0 | 0.0 | 0.00 | 0.00 | 0.00 | 71 | 1013.0 |
| 20260906023656 | 83 | 253 | 0.0 | 0.9 | 0.00 | 0.00 | 0.00 | 70 | 1013.0 |
| 20260906023155 | 84 | 105 | 0.9 | 1.7 | 0.00 | 0.00 | 0.00 | 68 | 1013.0 |
| 20260906022655 | 84 | 253 | 1.7 | 2.6 | 0.00 | 0.00 | 0.00 | 66 | 1013.0 |
| 20260906022155 | 84 | 320 | 0.9 | 1.7 | 0.00 | 0.00 | 0.00 | 66 | 1013.0 |
| 20260906021655 | 84 | 313 | 0.9 | 1.7 | 0.00 | 0.00 | 0.00 | 67 | 1013.0 |
| 20260906021155 | 84 | 316 | 0.9 | 2.6 | 0.00 | 0.00 | 0.00 | 67 | 1013.0 |
| 20260906020655 | 84 | 265 | 0.9 | 1.7 | 0.00 | 0.00 | 0.00 | 69 | 1013.0 |
| 20260906020155 | 84 | 11 | 1.7 | 1.7 | 0.00 | 0.00 | 0.00 | 70 | 1013.0 |
| 20260906015655 | 83 | 314 | 1.7 | 2.6 | 0.00 | 0.00 | 0.00 | 69 | 1013.0 |
| 20260906015155 | 83 | 1 | 1.7 | 2.6 | 0.00 | 0.00 | 0.00 | 70 | 1012.0 |
| 20260906014655 | 83 | 173 | 0.0 | 0.9 | 0.00 | 0.00 | 0.00 | 72 | 1012.0 |
| 20260906014155 | 83 | 273 | 0.0 | 0.0 | 0.00 | 0.00 | 0.00 | 72 | 1012.0 |
| 20260906013655 | 83 | 338 | 0.0 | 0.9 | 0.00 | 0.00 | 0.00 | 72 | 1012.0 |
| 20260906013155 | 83 | 42 | 0.9 | 1.7 | 0.00 | 0.00 | 0.00 | 72 | 1012.0 |
| 20260906012655 | 83 | 266 | 0.0 | 0.0 | 0.00 | 0.00 | 0.00 | 72 | 1012.0 |
| 20260906012155 | 83 | 21 | 0.0 | 0.9 | 0.00 | 0.00 | 0.00 | 71 | 1012.0 |
| 20260906011655 | 83 | 5 | 0.0 | 0.9 | 0.00 | 0.00 | 0.00 | 70 | 1012.0 |
| 20260906011155 | 83 | 324 | 0.0 | 0.9 | 0.00 | 0.00 | 0.00 | 70 | 1012.0 |
| 20260906010655 | 84 | 66 | 0.0 | 1.7 | 0.00 | 0.00 | 0.00 | 70 | 1012.0 |
| 20260906010155 | 84 | 4 | 0.0 | 0.9 | 0.00 | 0.00 | 0.00 | 69 | 1012.0 |
| 20260906005655 | 84 | 6 | 0.0 | 0.9 | 0.00 | 0.00 | 0.00 | 68 | 1012.0 |
| 20260906005155 | 85 | 300 | 0.9 | 0.9 | 0.00 | 0.00 | 0.00 | 67 | 1012.0 |
| 20260906004655 | 85 | 336 | 0.0 | 0.9 | 0.00 | 0.00 | 0.00 | 66 | 1012.0 |
| 20260906004155 | 85 | 18 | 0.0 | 0.9 | 0.00 | 0.00 | 0.00 | 66 | 1012.0 |
| 20260906003655 | 85 | 267 | 1.7 | 1.7 | 0.00 | 0.00 | 0.00 | 66 | 1012.0 |
| 20260906003155 | 85 | 279 | 1.7 | 2.6 | 0.00 | 0.00 | 0.00 | 67 | 1012.0 |
| 20260906002656 | 85 | 305 | 0.9 | 1.7 | 0.00 | 0.00 | 0.00 | 66 | 1012.0 |
| 20260906002156 | 85 | 279 | 0.0 | 0.9 | 0.00 | 0.00 | 0.00 | 67 | 1012.0 |
| 20260906001655 | 85 | 219 | 0.9 | 2.6 | 0.00 | 0.00 | 0.00 | 67 | 1012.0 |
| 20260906001155 | 86 | 265 | 2.6 | 5.2 | 0.00 | 0.00 | 0.00 | 66 | 1012.0 |
| 20260906000655 | 87 | 234 | 2.6 | 3.5 | 0.00 | 0.00 | 0.00 | 65 | 1012.0 |
| 20260906000156 | 87 | 226 | 3.5 | 5.2 | 0.00 | 0.00 | 0.00 | 64 | 1013.0 |
| 20260905235655 | 89 | 236 | 4.3 | 7.0 | 0.00 | 0.00 | 0.00 | 62 | 1013.0 |
| 20260905235155 | 89 | 259 | 3.5 | 6.1 | 0.00 | 0.00 | 0.00 | 59 | 1013.0 |
| 20260905234655 | 91 | 163 | 3.5 | 7.8 | 0.00 | 0.00 | 0.00 | 58 | 1012.0 |
| 20260905234155 | 92 | 105 | 3.5 | 5.2 | 0.00 | 0.00 | 0.00 | 54 | 1012.0 |
| 20260905233655 | 92 | 80 | 2.6 | 5.2 | 0.00 | 0.00 | 0.00 | 53 | 1012.0 |
| 20260905233155 | 93 | 22 | 2.6 | 5.2 | 0.00 | 0.00 | 0.00 | 54 | 1012.0 |
| 20260905232655 | 94 | 29 | 0.9 | 2.6 | 0.00 | 0.00 | 0.00 | 54 | 1012.0 |
| 20260905232155 | 94 | 70 | 2.6 | 6.1 | 0.00 | 0.00 | 0.00 | 53 | 1012.0 |
| 20260905231655 | 95 | 48 | 0.9 | 2.6 | 0.00 | 0.00 | 0.00 | 52 | 1012.0 |
| 20260905231155 | 95 | 29 | 1.7 | 3.5 | 0.00 | 0.00 | 0.00 | 51 | 1012.0 |
| 20260905230655 | 96 | 82 | 3.5 | 6.1 | 0.00 | 0.00 | 0.00 | 49 | 1012.0 |
| 20260905230155 | 97 | 60 | 2.6 | 5.2 | 0.00 | 0.00 | 0.00 | 49 | 1012.0 |
| 20260905225655 | 99 | 20 | 0.9 | 1.7 | 0.00 | 0.00 | 0.00 | 50 | 1011.0 |
| 20260905225155 | 99 | 310 | 0.9 | 1.7 | 0.00 | 0.00 | 0.00 | 46 | 1011.0 |
| 20260905224655 | 98 | 310 | 0.9 | 1.7 | 0.00 | 0.00 | 0.00 | 46 | 1011.0 |
| 20260905224155 | 99 | 330 | 0.9 | 1.7 | 0.00 | 0.00 | 0.00 | 45 | 1011.0 |
| 20260905223655 | 99 | 321 | 0.9 | 1.7 | 0.00 | 0.00 | 0.00 | 45 | 1011.0 |
| 20260905223155 | 100 | 9 | 1.7 | 3.5 | 0.00 | 0.00 | 0.00 | 44 | 1011.0 |
| 20260905222655 | 100 | 353 | 2.6 | 3.5 | 0.00 | 0.00 | 0.00 | 43 | 1011.0 |
| 20260905222156 | 100 | 330 | 1.7 | 2.6 | 0.00 | 0.00 | 0.00 | 44 | 1011.0 |
| 20260905221655 | 100 | 333 | 2.6 | 3.5 | 0.00 | 0.00 | 0.00 | 42 | 1011.0 |
| 20260905221155 | 101 | 344 | 1.7 | 3.5 | 0.00 | 0.00 | 0.00 | 42 | 1011.0 |
| 20260905220655 | 100 | 292 | 0.9 | 2.6 | 0.00 | 0.00 | 0.00 | 44 | 1011.0 |
| 20260905220155 | 100 | 309 | 0.9 | 2.6 | 0.00 | 0.00 | 0.00 | 43 | 1011.0 |
| 20260905215655 | 100 | 149 | 0.9 | 1.7 | 0.00 | 0.00 | 0.00 | 43 | 1011.0 |
| 20260905215155 | 100 | 147 | 0.9 | 1.7 | 0.00 | 0.00 | 0.00 | 43 | 1012.0 |
| 20260905214656 | 100 | 335 | 1.7 | 3.5 | 0.00 | 0.00 | 0.00 | 42 | 1012.0 |
| 20260905214155 | 100 | 181 | 1.7 | 1.7 | 0.00 | 0.00 | 0.00 | 42 | 1012.0 |
| 20260905213655 | 100 | 151 | 0.0 | 2.6 | 0.00 | 0.00 | 0.00 | 42 | 1012.0 |
| 20260905213155 | 100 | 270 | 1.7 | 3.5 | 0.00 | 0.00 | 0.00 | 43 | 1012.0 |
| 20260905212655 | 100 | 164 | 0.9 | 2.6 | 0.00 | 0.00 | 0.00 | 43 | 1012.0 |
| 20260905212155 | 100 | 329 | 1.7 | 3.5 | 0.00 | 0.00 | 0.00 | 42 | 1012.0 |
| 20260905211655 | 101 | 97 | 0.9 | 3.5 | 0.00 | 0.00 | 0.00 | 42 | 1012.0 |
| 20260905211155 | 102 | 310 | 0.9 | 1.7 | 0.00 | 0.00 | 0.00 | 41 | 1012.0 |
| 20260905210655 | 102 | 297 | 0.9 | 1.7 | 0.00 | 0.00 | 0.00 | 41 | 1012.0 |
| 20260905210155 | 101 | 331 | 0.9 | 1.7 | 0.00 | 0.00 | 0.00 | 41 | 1012.0 |
| 20260905205655 | 101 | 357 | 1.7 | 2.6 | 0.00 | 0.00 | 0.00 | 41 | 1012.0 |
| 20260905205157 | 101 | 245 | 1.7 | 4.3 | 0.00 | 0.00 | 0.00 | 42 | 1012.0 |
| 20260905204656 | 101 | 349 | 0.9 | 2.6 | 0.00 | 0.00 | 0.00 | 42 | 1012.0 |
| 20260905204155 | 101 | 220 | 0.9 | 3.5 | 0.00 | 0.00 | 0.00 | 41 | 1012.0 |
| 20260905203656 | 101 | 242 | 1.7 | 3.5 | 0.00 | 0.00 | 0.00 | 40 | 1012.0 |
| 20260905203155 | 100 | 183 | 0.9 | 1.7 | 0.00 | 0.00 | 0.00 | 42 | 1012.0 |
| 20260905202655 | 100 | 75 | 2.6 | 5.2 | 0.00 | 0.00 | 0.00 | 43 | 1012.0 |
| 20260905202156 | 100 | 222 | 1.7 | 2.6 | 0.00 | 0.00 | 0.00 | 42 | 1012.0 |
| 20260905201655 | 100 | 310 | 0.9 | 1.7 | 0.00 | 0.00 | 0.00 | 44 | 1012.0 |
| 20260905201156 | 100 | 8 | 1.7 | 4.3 | 0.00 | 0.00 | 0.00 | 42 | 1012.0 |
| 20260905200655 | 100 | 64 | 2.6 | 5.2 | 0.00 | 0.00 | 0.00 | 44 | 1012.0 |
| 20260905200155 | 100 | 243 | 3.5 | 6.1 | 0.00 | 0.00 | 0.00 | 45 | 1012.0 |
| 20260905195655 | 100 | 142 | 2.6 | 4.3 | 0.00 | 0.00 | 0.00 | 44 | 1012.0 |
| 20260905195155 | 100 | 69 | 1.7 | 4.3 | 0.00 | 0.00 | 0.00 | 43 | 1013.0 |
| 20260905194655 | 100 | 56 | 0.9 | 2.6 | 0.00 | 0.00 | 0.00 | 43 | 1013.0 |
| 20260905194156 | 99 | 14 | 0.9 | 2.6 | 0.00 | 0.00 | 0.00 | 45 | 1013.0 |
| 20260905193655 | 101 | 94 | 2.6 | 3.5 | 0.00 | 0.00 | 0.00 | 43 | 1013.0 |
| 20260905193155 | 101 | 138 | 0.9 | 1.7 | 0.00 | 0.00 | 0.00 | 42 | 1013.0 |
| 20260905192655 | 100 | 334 | 0.9 | 2.6 | 0.00 | 0.00 | 0.00 | 43 | 1013.0 |
| 20260905192155 | 100 | 233 | 1.7 | 3.5 | 0.00 | 0.00 | 0.00 | 44 | 1013.0 |
| 20260905191656 | 100 | 349 | 0.9 | 1.7 | 0.00 | 0.00 | 0.00 | 44 | 1013.0 |
| 20260905191155 | 100 | 328 | 0.9 | 3.5 | 0.00 | 0.00 | 0.00 | 45 | 1013.0 |
| 20260905190655 | 99 | 287 | 0.9 | 2.6 | 0.00 | 0.00 | 0.00 | 46 | 1013.0 |
| 20260905190159 | 100 | 95 | 2.6 | 4.3 | 0.00 | 0.00 | 0.00 | 44 | 1013.0 |
| 20260905185656 | 100 | 14 | 1.7 | 3.5 | 0.00 | 0.00 | 0.00 | 43 | 1013.0 |
| 20260905185155 | 98 | 7 | 1.7 | 2.6 | 0.00 | 0.00 | 0.00 | 45 | 1013.0 |
| 20260905184655 | 98 | 108 | 0.9 | 1.7 | 0.00 | 0.00 | 0.00 | 46 | 1014.0 |
| 20260905184155 | 99 | 245 | 2.6 | 5.2 | 0.00 | 0.00 | 0.00 | 46 | 1014.0 |
| 20260905183655 | 99 | 292 | 1.7 | 3.5 | 0.00 | 0.00 | 0.00 | 43 | 1014.0 |
| 20260905183155 | 99 | 360 | 1.7 | 4.3 | 0.00 | 0.00 | 0.00 | 44 | 1014.0 |
| 20260905182656 | 98 | 63 | 1.7 | 4.3 | 0.00 | 0.00 | 0.00 | 47 | 1014.0 |
| 20260905182155 | 99 | 218 | 1.7 | 2.6 | 0.00 | 0.00 | 0.00 | 49 | 1014.0 |
| 20260905181655 | 99 | 207 | 0.9 | 2.6 | 0.00 | 0.00 | 0.00 | 47 | 1014.0 |
| 20260905181155 | 99 | 302 | 1.7 | 2.6 | 0.00 | 0.00 | 0.00 | 48 | 1014.0 |
| 20260905180655 | 99 | 329 | 2.6 | 4.3 | 0.00 | 0.00 | 0.00 | 49 | 1014.0 |
| 20260905180156 | 98 | 247 | 2.6 | 5.2 | 0.00 | 0.00 | 0.00 | 51 | 1014.0 |
| 20260905175656 | 97 | 328 | 1.7 | 3.5 | 0.00 | 0.00 | 0.00 | 50 | 1014.0 |
| 20260905175155 | 96 | 82 | 0.9 | 1.7 | 0.00 | 0.00 | 0.00 | 52 | 1014.0 |
| 20260905174655 | 96 | 190 | 0.9 | 1.7 | 0.00 | 0.00 | 0.00 | 52 | 1014.0 |
| 20260905174156 | 96 | 84 | 5.2 | 7.8 | 0.00 | 0.00 | 0.00 | 51 | 1014.0 |
| 20260905173655 | 97 | 255 | 1.7 | 2.6 | 0.00 | 0.00 | 0.00 | 53 | 1014.0 |
| 20260905173156 | 97 | 274 | 1.7 | 3.5 | 0.00 | 0.00 | 0.00 | 51 | 1014.0 |
| 20260905172655 | 97 | 247 | 1.7 | 2.6 | 0.00 | 0.00 | 0.00 | 51 | 1014.0 |
| 20260905172157 | 96 | 174 | 1.7 | 1.7 | 0.00 | 0.00 | 0.00 | 53 | 1014.0 |
| 20260905171655 | 95 | 15 | 1.7 | 3.5 | 0.00 | 0.00 | 0.00 | 54 | 1014.0 |
| 20260905171156 | 96 | 122 | 3.5 | 5.2 | 0.00 | 0.00 | 0.00 | 53 | 1015.0 |
| 20260905170655 | 97 | 114 | 1.7 | 2.6 | 0.00 | 0.00 | 0.00 | 50 | 1015.0 |
| 20260905165708 | 95 | 276 | 0.9 | 1.7 | 0.00 | 0.00 | 0.00 | 53 | 1015.0 |
| 20260905165155 | 95 | 66 | 1.7 | 2.6 | 0.00 | 0.00 | 0.00 | 55 | 1015.0 |
| 20260905164656 | 95 | 270 | 1.7 | 4.3 | 0.00 | 0.00 | 0.00 | 54 | 1015.0 |
| 20260905164155 | 94 | 349 | 1.7 | 2.6 | 0.00 | 0.00 | 0.00 | 55 | 1015.0 |
| 20260905163656 | 94 | 243 | 4.3 | 7.0 | 0.00 | 0.00 | 0.00 | 56 | 1015.0 |
| 20260905163155 | 95 | 210 | 1.7 | 2.6 | 0.00 | 0.00 | 0.00 | 54 | 1015.0 |
| 20260905162655 | 95 | 8 | 3.5 | 5.2 | 0.00 | 0.00 | 0.00 | 54 | 1015.0 |
| 20260905162155 | 95 | 204 | 0.9 | 3.5 | 0.00 | 0.00 | 0.00 | 56 | 1015.0 |
| 20260905161655 | 94 | 30 | 1.7 | 3.5 | 0.00 | 0.00 | 0.00 | 56 | 1015.0 |
| 20260905161156 | 93 | 303 | 0.9 | 4.3 | 0.00 | 0.00 | 0.00 | 59 | 1015.0 |
| 20260905160656 | 93 | 222 | 2.6 | 4.3 | 0.00 | 0.00 | 0.00 | 58 | 1015.0 |
| 20260905160155 | 94 | 187 | 0.9 | 1.7 | 0.00 | 0.00 | 0.00 | 57 | 1015.0 |
| 20260905155656 | 94 | 6 | 1.7 | 3.5 | 0.00 | 0.00 | 0.00 | 56 | 1015.0 |
| 20260905155155 | 94 | 223 | 1.7 | 4.3 | 0.00 | 0.00 | 0.00 | 57 | 1015.0 |
| 20260905154655 | 93 | 221 | 0.0 | 1.7 | 0.00 | 0.00 | 0.00 | 56 | 1015.0 |
| 20260905154156 | 92 | 310 | 0.9 | 2.6 | 0.00 | 0.00 | 0.00 | 59 | 1015.0 |
| 20260905153655 | 91 | 24 | 1.7 | 2.6 | 0.00 | 0.00 | 0.00 | 61 | 1015.0 |
| 20260905153155 | 91 | 78 | 3.5 | 5.2 | 0.00 | 0.00 | 0.00 | 60 | 1015.0 |
| 20260905152655 | 91 | 95 | 2.6 | 4.3 | 0.00 | 0.00 | 0.00 | 61 | 1015.0 |
| 20260905152155 | 90 | 154 | 1.7 | 2.6 | 0.00 | 0.00 | 0.00 | 65 | 1015.0 |
| 20260905151729 | 90 | 130 | 0.9 | 2.6 | 0.00 | 0.00 | 0.00 | 65 | 1015.0 |
| 20260905151155 | 90 | 150 | 1.7 | 2.6 | 0.00 | 0.00 | 0.00 | 66 | 1015.0 |
| 20260905150655 | 90 | 240 | 2.6 | 3.5 | 0.00 | 0.00 | 0.00 | 67 | 1015.0 |
| 20260905150155 | 90 | 202 | 1.7 | 3.5 | 0.00 | 0.00 | 0.00 | 65 | 1015.0 |
| 20260905145655 | 89 | 85 | 1.7 | 3.5 | 0.00 | 0.00 | 0.00 | 68 | 1015.0 |
| 20260905145156 | 88 | 95 | 0.9 | 3.5 | 0.00 | 0.00 | 0.00 | 69 | 1015.0 |
| 20260905144656 | 87 | 101 | 3.5 | 4.3 | 0.00 | 0.00 | 0.00 | 69 | 1015.0 |
| 20260905144155 | 87 | 111 | 2.6 | 3.5 | 0.00 | 0.00 | 0.00 | 70 | 1016.0 |
| 20260905143656 | 87 | 210 | 2.6 | 5.2 | 0.00 | 0.00 | 0.00 | 71 | 1016.0 |
| 20260905143155 | 86 | 150 | 1.7 | 2.6 | 0.00 | 0.00 | 0.00 | 72 | 1016.0 |
| 20260905142655 | 87 | 217 | 3.5 | 6.1 | 0.00 | 0.00 | 0.00 | 73 | 1016.0 |
| 20260905142155 | 87 | 178 | 0.0 | 1.7 | 0.00 | 0.00 | 0.00 | 73 | 1016.0 |
| 20260905141655 | 86 | 189 | 1.7 | 3.5 | 0.00 | 0.00 | 0.00 | 73 | 1016.0 |